Regional Weather Roundup
Issued by NWS

Home | Current Version | Previous Version | Text Only | Print | Product List | Glossary Off
Versions: 1 2 3 4 5 6 7 8 9 10 11 12 13 14 15 16 17 18 19 20 21 22 23 24 25 26 27 28 29 30 31 32 33 34 35 36 37 38 39 40 41 42 43 44 45 46 47 48 49 50

000
ASUS43 KMKX 221221
RWRWI

WISCONSIN REGIONAL WEATHER ROUNDUP
NATIONAL WEATHER SERVICE MILWAUKEE/SULLIVAN WI
700 AM CDT MON SEP 22 2014

NOTE: "FAIR" INDICATES FEW OR NO CLOUDS BELOW 12,000 FEET WITH NO
SIGNIFICANT WEATHER AND/OR OBSTRUCTIONS TO VISIBILITY.

WIZ001-002-006>008-014>016-023>028-221300-
NORTHWEST WISCONSIN

CITY           SKY/WX    TMP DP  RH WIND       PRES   REMARKS
SUPERIOR ARPT  CLEAR     43  43  99 SW8       30.20S
6HR MIN TEMP:  41; 6HR MAX TEMP:  45;

ASHLAND        CLEAR     46  44  93 SW7       30.19S
6HR MIN TEMP:  41; 6HR MAX TEMP:  48;

HAYWARD        FOG       37  36  96 CALM      30.22R VSB 1
6HR MIN TEMP:  37; 6HR MAX TEMP:  40;

SIREN          PTCLDY    39  38  95 CALM      30.23R
6HR MIN TEMP:  39; 6HR MAX TEMP:  45;

RICE LAKE      FOG       40  40  97 CALM      30.24S VSB 1/4
6HR MIN TEMP:  40; 6HR MAX TEMP:  45;

LADYSMITH      PTCLDY    38  37  97 CALM      30.24R
6HR MIN TEMP:  37; 6HR MAX TEMP:  41;

EAU CLAIRE     CLEAR     44  42  93 CALM      30.23S
6HR MIN TEMP:  43; 6HR MAX TEMP:  47;

MENOMONIE      SUNNY     42  41  96 CALM      30.24S
6HR MIN TEMP:  42; 6HR MAX TEMP:  48;

NEW RICHMOND   FOG       42  42 100 CALM      30.24R VSB 1/4
6HR MIN TEMP:  41; 6HR MAX TEMP:  46;

OSCEOLA        FOG       42  42 100 CALM      30.27R VSB<1/4
6HR MIN TEMP:  40; 6HR MAX TEMP:  45;

$$

WIZ003>005-009-010-017-018-221300-
NORTH CENTRAL WISCONSIN

CITY           SKY/WX    TMP DP  RH WIND       PRES   REMARKS
WOODRUFF       PTCLDY    42  40  93 CALM      30.20R
6HR MIN TEMP:  37; 6HR MAX TEMP:  42;

RHINELANDER    PTCLDY    36  35  96 W6        30.21R WCI  31
6HR MIN TEMP:  33; 6HR MAX TEMP:  42;

EAGLE RIVER    CLOUDY    35  35 100 CALM      30.18S
6HR MIN TEMP:  31; 6HR MAX TEMP:  35;

LAND O LAKES   CLOUDY    37  37 100 CALM      30.20R
6HR MIN TEMP:  31; 6HR MAX TEMP:  37;

PHILLIPS       CLEAR     36  36 100 CALM      30.21S FOG
6HR MIN TEMP:  35; 6HR MAX TEMP:  38;

TOMAHAWK       CLEAR     32  32  99 CALM      30.22R
6HR MIN TEMP:  32; 6HR MAX TEMP:  33;

MEDFORD        CLEAR     36  36  99 CALM      30.22S FOG
6HR MIN TEMP:  35; 6HR MAX TEMP:  42;

MERRILL        CLEAR     33  32  99 CALM      30.22R
6HR MIN TEMP:  33; 6HR MAX TEMP:  37;

$$

WIZ029-030-035-036-043>047-221300-
CENTRAL WISCONSIN

CITY           SKY/WX    TMP DP  RH WIND       PRES   REMARKS
WAUSAU         CLEAR     40  38  93 CALM      30.22R
6HR MIN TEMP:  40; 6HR MAX TEMP:  43;

MOSINEE        CLEAR     39  39 100 W6        30.24R WCI  35
MARSHFIELD     CLEAR     42  39  89 W6        30.23R
6HR MIN TEMP:  39; 6HR MAX TEMP:  44;

STEVENS POINT  CLEAR     33  32  96 CALM      30.23S
6HR MIN TEMP:  33; 6HR MAX TEMP:  37;

WAUPACA        CLEAR     39  38  96 CALM      30.23S
6HR MIN TEMP:  39; 6HR MAX TEMP:  43;

WAUTOMA        CLEAR     36  35  96 CALM      30.25R
6HR MIN TEMP:  36; 6HR MAX TEMP:  40;

WISC RAPIDS    FOG       38  37  97 CALM      30.25R VSB 3/4
6HR MIN TEMP:  38; 6HR MAX TEMP:  41;

CAMP DOUGLAS   CLEAR     34  34 100 CALM      30.25R
$$

WIZ011>013-019>022-031-037>040-048>050-221300-
NORTHEAST WISCONSIN

CITY           SKY/WX    TMP DP  RH WIND       PRES   REMARKS
ANTIGO         CLEAR     33  33 100 CALM      30.22S
6HR MIN TEMP:  33; 6HR MAX TEMP:  36;

STURGEON BAY   CLEAR     41  37  87 CALM      30.21R
6HR MIN TEMP:  39; 6HR MAX TEMP:  46;

GREEN BAY      CLEAR     38  37  97 CALM      30.22R
6HR MIN TEMP:  37; 6HR MAX TEMP:  41;

MANITOWOC      CLEAR     38  38 100 CALM      30.23R
6HR MIN TEMP:  38; 6HR MAX TEMP:  43;

APPLETON       PTCLDY    39  37  93 W9        30.22S WCI  33
CLINTONVILLE   CLEAR     36  34  93 CALM      30.22R
OSHKOSH        CLEAR     43  39  86 W6        30.22S
6HR MIN TEMP:  39; 6HR MAX TEMP:  44;

$$

WIZ032>034-041-042-053>061-221300-
SOUTHWEST WISCONSIN

CITY           SKY/WX    TMP DP  RH WIND       PRES   REMARKS
LA CROSSE      FOG       49  47  93 S5        30.26R VSB 1/2
6HR MIN TEMP:  47; 6HR MAX TEMP:  50;

SPARTA         CLEAR     33  33 100 CALM      30.27R
6HR MIN TEMP:  33; 6HR MAX TEMP:  38;

VIROQUA        FAIR      44  44 100 SW3       30.26R
6HR MIN TEMP:  41; 6HR MAX TEMP:  47;

BOSCOBEL       FOG       45  44  97 SW5       30.29R VSB 1/4
6HR MIN TEMP:  44; 6HR MAX TEMP:  47;

PRAIRIE DU CHI FOG       47  46  96 CALM      30.28R VSB 1/4
6HR MIN TEMP:  44; 6HR MAX TEMP:  48;

PLATTEVILLE    FAIR      40  39  96 CALM      30.29R
6HR MIN TEMP:  40; 6HR MAX TEMP:  47;

$$

WIZ056-057-062-063-064-067-068-221300-
SOUTH CENTRAL WISCONSIN

CITY           SKY/WX    TMP DP  RH WIND       PRES   REMARKS
BARABOO/DELLS  CLEAR     38  37  95 CALM      30.25R
6HR MIN TEMP:  38; 6HR MAX TEMP:  43;

LONE ROCK      FOG       44  40  85 CALM      30.28R VSB<1/4
6HR MIN TEMP:  42; 6HR MAX TEMP:  47;

WATERTOWN      CLEAR     36  36 100 CALM      30.26R
6HR MIN TEMP:  35; 6HR MAX TEMP:  44;

MADISON        CLEAR     39  37  92 CALM      30.27R
6HR MIN TEMP:  38; 6HR MAX TEMP:  46;

MIDDLETON      FAIR      39  39 100 CALM      30.27R
6HR MIN TEMP:  37; 6HR MAX TEMP:  47;

MONROE         CLEAR     43  41  93 NW8       30.26R
JANESVILLE     CLEAR     39  39 100 CALM      30.26R
$$

WIZ051-052-058>065-066-070>072-221300-
SOUTHEAST WISCONSIN

CITY           SKY/WX    TMP DP  RH WIND       PRES   REMARKS
MILWAUKEE      CLEAR     42  37  82 CALM      30.25R
6HR MIN TEMP:  42; 6HR MAX TEMP:  48;

WAUKESHA       CLEAR     37  36  93 CALM      30.26R
MILWAUKEE/TIMM CLEAR     39  36  87 CALM      30.25R
RACINE         CLEAR     42  38  85 W7        30.27R
6HR MIN TEMP:  42; 6HR MAX TEMP:  48;

BURLINGTON     CLEAR     34  34 100 CALM      30.25S
6HR MIN TEMP:  32; 6HR MAX TEMP:  41;

KENOSHA        CLEAR     42  39  89 NW5       30.26R
6HR MIN TEMP:  42; 6HR MAX TEMP:  47;

FOND DU LAC    CLEAR     39  37  92 SW5       30.24R
6HR MIN TEMP:  38; 6HR MAX TEMP:  44;

SHEBOYGAN      CLEAR     37  35  92 SW3       30.23R
6HR MIN TEMP:  34; 6HR MAX TEMP:  43;

WEST BEND      CLEAR     36  36 100 CALM      30.24R
JUNEAU         CLEAR     36  35  99 SW3       30.26R
6HR MIN TEMP:  36; 6HR MAX TEMP:  42;

$$

LSZ147-162-221300-
LAKE SUPERIOR

STATION/POSITION TIME  TEMP    WIND        PRES    WAVE
                       AIR SEA DIR/SP/G            HT/PER
                 (UTC) (F)     (DEG/KT/KT) (MB)    (FT/S)
W MID LAKE BUOY  1150   49 46  250/ 10/ 12 1020.8R   1/ 3
DEVILS ISLAND    1200   51     240/ 14/ 16 1021.8R
PORT WING        1100   48     190/  6/  8 1022.0S
SAXON HARBOR     1100   50     200/  9/ 10 1021.7S
$$

LMZ867-665-643>646-221300-
LAKE MICHIGAN

STATION/POSITION TIME  TEMP    WIND        PRES    WAVE
                       AIR SEA DIR/SP/G            HT/PER
                 (UTC) (F)     (DEG/KT/KT) (MB)    (FT/S)
N MID LAKE BUOY  1150   49 57  270/  6/ 10 1022.0R   1/ 3
NORTHPORT PIER   1100   43     240/  3/  5 1022.0R
KEWAUNEE LAKESHO 1200   40     280/  2/  3 1022.0R
SHEBOYGAN LAKESH 1200   44 51  250/  5/  6 1024.4R
PORT WASHINGTON  1100   43     290/  5/  6 1024.4
ATWATER BUOY     1200   48     280/  8/ 10 1025.2R
MILWAUKEE LAKESH 1200   46     270/  4/  5   N/A
S MID LAKE BUOY  1150   53 61  340/ 12/ 16 1023.9R   5/ 8
KENOSHA   LAKESH 1200   45     300/  7/ 11 1024.0R
$$

TC  - TEMPERATURE IN CELSIUS
VSB - VISIBILITY IN STATUTE MILES
WCI - WIND CHILL INDEX
HX  - HEAT INDEX




USA.gov is the U.S. government's official web portal to all federal, state and local government web resources and services.